フィエチジョシュ彗星

C/2024 E1 ( Wierzchos )

English version
Home page
Updated on November 27, 2024

---------------------------------------------------------------------

・ プロフィール

発見日 2024年3月3日
発見光度 20.4等
発見者 Kacper W. Wierzchos (Mt. Lemmon Survey)

・ 写真集

・ 軌道要素

Epoch 2024 Oct. 17.0 TT = JDT 2460600.5
T 2026 Jan. 20.76013 TT                                 Rudenko
q   0.5655110            (2000.0)            P               Q
z  -0.0000439      Peri.  243.65056     +0.35491836     -0.17080093
 +/-0.0000158      Node   108.09443     +0.02267288     +0.98445302
e   1.0000248      Incl.   75.23605     -0.93462233     -0.04097912
From 312 observations 2024 Feb. 15-Nov. 7, mean residual 0".4.

・ 星図

・ 光度変化

        m1 = 7.0 + 5 logΔ + 10.0 log r

---------------------------------------------------------------------

軌道要素はM.P.E.C. 2024-V192に掲載されたものです。
星図はステラナビゲータ Ver.11 (アストロアーツ) で作成したものです。
光度グラフはComet for Windowsで作成したものです。

---------------------------------------------------------------------

Copyright(C) Seiichi Yoshida (comet@aerith.net). All rights reserved.